Location: Unspecified
(0.0000°N, 0.0000°E)
Time: 19:00:48
(UTC+00:00)

Courier 1B Rocket - Pass Details

Date: 30 April 2024
Orbit: 920 x 1201 km, 28.2° (Epoch: 19 May)

Event Time Altitude Azimuth Distance (km) Brightness Sun altitude
Rises 18:11:54 0° 222° (SW) 3,616 8.4 -3.6°
Reaches altitude 10° 18:14:46 10° 212° (SSW) 2,703 7.6 -4.3°
Maximum altitude 18:20:32 32° 151° (SSE) 1,655 5.9 -5.6°
Drops below altitude 10° 18:26:37 10° 90° (E) 2,872 6.8 -7.1°
Enters shadow 18:27:42 - 86° (E) 3,208 7.1 -7.4°
